#timestamp,LO_Frequency,Hit,StdDev 
1567908015.7,286047000.1,N
1567908035.5,286046998.5,N
1567908055.4,286046998.8,N
1567908075.2,286046999.0,N
1567908095.0,286046996.6,N
1567908095.9,286046996.6,N
1567908115.8,286046996.5,N
1567908135.6,286046997.9,N
1567908155.4,286046995.8,N
1567908175.3,286046993.4,Y
1567908195.1,286046995.7,P
1567908215.9,286046991.8,P
1567908235.7,286046995.8,N
1567908255.5,286046996.3,N
1567908275.4,286046995.4,N
1567908295.2,286046994.0,N
1567908315.0,286046995.7,N
1567908315.9,286046995.7,N
1567908335.8,286046998.4,N
1567908355.6,286046997.3,N
1567908375.5,286046996.6,N
1567908395.3,286046997.1,N
1567908415.1,286046993.7,Y
1567908435.9,286046998.8,P
1567908455.7,286047000.8,N
1567908475.6,286047001.2,N
1567908495.4,286046999.3,N
1567908515.2,286047011.9,Y
1567908535.1,286047000.5,P
1567908536.0,286047000.5,N
1567908555.8,286047000.8,N
1567908575.6,286046998.5,N
1567908595.5,286046997.1,Y
1567908615.3,286046995.7,P
1567908635.2,286046997.7,N
1567908655.9,286046995.5,N
1567908675.7,286046996.9,N
1567908695.6,286046997.4,N
1567908715.4,286046996.5,N
1567908735.2,286046997.0,N
1567908755.1,286046997.2,N
1567908756.0,286046997.2,N
1567908775.8,286046995.3,Y
1567908795.7,286047000.7,P
1567908815.5,286047002.5,N
1567908835.3,286047001.6,N
1567908855.2,286047000.4,N
1567908875.0,286046998.1,N
1567908875.9,286046998.1,N
1567908895.8,286047001.1,N
1567908915.6,286046999.7,N
1567908935.4,286047000.0,N
1567908955.3,286047000.3,N
1567908975.1,286047000.7,N
1567908995.9,286046999.7,N
1567909015.7,286047001.7,N
1567909035.5,286047002.3,N
1567909055.4,286047004.2,N
1567909075.2,286047004.2,N
1567909095.0,286047002.4,N
1567909095.9,286047002.4,N
1567909115.8,286047000.1,N
1567909135.6,286047000.0,N
1567909155.5,286047002.4,N
1567909175.3,286047000.4,N
1567909195.1,286047000.1,N
1567909215.9,286047000.5,N
1567909235.7,286047000.1,N
1567909255.6,286047000.5,N
1567909275.4,286047000.2,N
1567909295.2,286047002.5,N
1567909315.1,286047002.4,N
1567909316.0,286047002.4,N
1567909335.8,286047002.4,N
1567909355.6,286047001.6,N
1567909375.5,286047002.0,N
1567909395.3,286047003.6,N
1567909415.2,286047004.8,Y
1567909435.0,286047004.6,P
1567909435.9,286047004.6,N
1567909455.7,286047005.3,P
1567909475.6,286047003.2,N
1567909495.4,286047003.8,N
1567909515.3,286047005.3,Y
1567909535.1,286047002.3,P
1567909555.8,286047001.6,N
1567909575.7,286047000.1,N
1567909595.5,286047000.7,N
1567909615.4,286047002.3,N
1567909635.2,286046998.6,N
1567909655.0,286046999.5,N
1567909655.9,286046999.5,N
1567909675.8,286046999.6,N
1567909695.6,286047001.6,N
1567909715.4,286047002.3,N
1567909735.3,286047000.7,N
1567909755.1,286046998.5,N
1567909775.8,286046996.7,N
1567909795.7,286046996.6,N
1567909815.5,286046998.7,N
1567909835.4,286046996.5,N
1567909855.2,286046997.0,N
1567909875.0,286046998.7,N
1567909875.9,286046998.7,N
1567909895.8,286047001.0,N
1567909915.6,286046999.9,N
1567909935.4,286046998.5,N
1567909955.3,286046999.2,N
1567909975.1,286046998.4,N
1567909995.9,286046998.8,N
1567910015.7,286047000.6,N
1567910035.5,286047000.2,N
1567910055.4,286047001.0,N
1567910075.2,286047000.6,N
1567910095.0,286046998.5,N
1567910095.9,286046998.5,N
1567910115.8,286047001.1,N
1567910135.6,286046999.0,N
1567910155.5,286046998.8,N
1567910175.3,286046996.9,N
1567910195.1,286046998.4,N
1567910215.9,286047002.3,N
1567910235.7,286047000.1,N
1567910255.5,286046999.6,N
1567910275.4,286046996.7,N
1567910295.2,286046999.4,N
1567910315.1,286046998.4,N
1567910316.0,286046998.4,N
1567910335.8,286046998.9,N
1567910355.6,286046996.5,N
1567910375.5,286046997.3,N
1567910395.3,286046997.4,N
1567910415.1,286046997.7,N
1567910435.9,286046993.3,Y
1567910455.7,286046995.4,P
1567910475.6,286046997.6,N
1567910495.4,286046995.0,P
1567910515.2,286046998.6,N
1567910535.1,286047000.6,N
1567910536.0,286047000.6,N
1567910555.8,286047001.9,N
1567910575.6,286047003.7,N
1567910595.5,286047003.5,N
1567910615.3,286047001.9,N
1567910635.2,286046998.2,N
1567910655.9,286047000.4,N
1567910675.7,286047000.1,N
1567910695.6,286046998.4,N
1567910715.4,286046997.6,N
1567910735.2,286046995.4,N
1567910755.1,286046997.7,N
1567910756.0,286046997.7,N
1567910775.8,286046997.3,N
1567910795.7,286047000.5,N
1567910815.5,286046999.3,N
1567910835.3,286046998.0,N
1567910855.2,286046997.4,N
1567910875.0,286046997.5,N
1567910875.9,286046997.5,N
1567910895.7,286046998.8,N
1567910915.6,286046999.3,N
1567910935.4,286046997.9,N
1567910955.3,286046997.6,N
1567910975.1,286046997.5,N
1567910976.0,286046997.5,N
1567910995.8,286046995.3,N
1567911015.7,286046995.4,N
1567911035.5,286046995.6,N
1567911055.4,286046996.1,N
1567911075.2,286046997.9,N
1567911095.0,286046995.8,N
1567911095.9,286046995.8,N
1567911115.8,286046994.9,N
1567911135.6,286047000.9,N
1567911155.4,286046998.0,N
1567911175.3,286046993.6,Y
1567911195.1,286046996.9,P
1567911215.9,286046997.0,P
1567911235.7,286047000.4,N
1567911255.5,286047002.3,N
1567911275.4,286047002.4,N
1567911295.2,286047002.8,N
1567911315.0,286047004.2,N
1567911315.9,286047004.2,N
1567911335.8,286047001.7,N
1567911355.6,286047004.1,N
1567911375.5,286046999.8,N
1567911395.3,286047000.1,N
1567911415.1,286046998.4,N
1567911435.9,286046996.8,N
1567911455.7,286046995.0,N
1567911475.5,286046996.2,N
1567911495.4,286046996.7,N
1567911515.2,286046995.0,N
1567911535.1,286046996.8,N
1567911536.0,286046996.8,N
1567911555.8,286046997.9,N
1567911575.6,286046996.2,N
1567911595.5,286046997.3,N
